Regional Weather Roundup
Issued by NWS

Home | Current Version | Previous Version | Graphics & Text | Print | Product List | Glossary Off
Versions: 1 2 3 4 5 6 7 8 9 10 11 12 13 14 15 16 17 18 19 20 21 22 23 24 25 26 27 28 29 30 31 32 33 34 35 36 37 38 39 40 41 42 43 44 45 46 47 48 49 50

000
ASUS43 KMKX 300021
RWRWI

WISCONSIN REGIONAL WEATHER ROUNDUP
NATIONAL WEATHER SERVICE MILWAUKEE/SULLIVAN WI
700 PM CDT FRI JUL 29 2016

NOTE: "FAIR" INDICATES FEW OR NO CLOUDS BELOW 12,000 FEET WITH NO
SIGNIFICANT WEATHER AND/OR OBSTRUCTIONS TO VISIBILITY.

WIZ001-002-006>008-014>016-023>028-300100-
NORTHWEST WISCONSIN

CITY           SKY/WX    TMP DP  RH WIND       PRES   REMARKS
SUPERIOR ARPT  SUNNY     69  54  57 E9        30.05F
6HR MIN TEMP:  69; 6HR MAX TEMP:  73;

ASHLAND        SUNNY     70  57  63 NE7       30.07S
6HR MIN TEMP:  70; 6HR MAX TEMP:  75;

HAYWARD        SUNNY     73  56  54 NE8       30.06R
6HR MIN TEMP:  71; 6HR MAX TEMP:  77;

SIREN          SUNNY     75  52  43 E3        30.04S
CUMBERLAND     SUNNY     72  52  49 E6        30.04F
RICE LAKE      SUNNY     75  53  46 N6        30.04F
6HR MIN TEMP:  72; 6HR MAX TEMP:  77;

CHETEK         SUNNY     76  55  47 NE5       30.03S
6HR MIN TEMP:  72; 6HR MAX TEMP:  77;

LADYSMITH      SUNNY     76  57  51 CALM      30.05S
6HR MIN TEMP:  74; 6HR MAX TEMP:  79;

EAU CLAIRE     MOSUNNY   76  60  57 E6        30.01S
6HR MIN TEMP:  75; 6HR MAX TEMP:  80;

MENOMONIE      SUNNY     79  53  40 NE5       30.02S
6HR MIN TEMP:  77; 6HR MAX TEMP:  82;

NEW RICHMOND   SUNNY     75  52  43 NE5       30.03F
6HR MIN TEMP:  73; 6HR MAX TEMP:  76;

OSCEOLA        SUNNY     74  55  51 NE6       30.05F
6HR MIN TEMP:  73; 6HR MAX TEMP:  76;

$$

WIZ003>005-009-010-017-018-300100-
NORTH CENTRAL WISCONSIN

CITY           SKY/WX    TMP DP  RH WIND       PRES   REMARKS
MANITOWISH WTR SUNNY     74  52  46 CALM      30.05S
6HR MIN TEMP:  70; 6HR MAX TEMP:  76;

ARBOR VITAE    SUNNY     77  55  46 N3        30.05S
6HR MIN TEMP:  72; 6HR MAX TEMP:  77;

WOODRUFF       SUNNY     77  55  46 N3        30.05S
6HR MIN TEMP:  72; 6HR MAX TEMP:  77;

RHINELANDER    CLOUDY    72  58  61 SE6       30.06R
6HR MIN TEMP:  72; 6HR MAX TEMP:  77;

EAGLE RIVER    PTSUNNY   74  54  49 E6        30.05S
6HR MIN TEMP:  71; 6HR MAX TEMP:  77;

LAND O LAKES   SUNNY     75  53  45 NE3       30.06S
6HR MIN TEMP:  72; 6HR MAX TEMP:  78; 6HR PCP:  0.01;

PHILLIPS       SUNNY     74  57  54 NE3       30.04S
6HR MIN TEMP:  71; 6HR MAX TEMP:  76;

TOMAHAWK       SUNNY     72  60  67 CALM      30.05S
6HR MIN TEMP:  72; 6HR MAX TEMP:  77;

MEDFORD        SUNNY     72  62  71 E3        30.05R
6HR MIN TEMP:  71; 6HR MAX TEMP:  74;

MERRILL        PTSUNNY   72  62  71 SE5       30.06R
6HR MIN TEMP:  72; 6HR MAX TEMP:  76;

$$

WIZ029-030-035-036-043>047-300100-
CENTRAL WISCONSIN

CITY           SKY/WX    TMP DP  RH WIND       PRES   REMARKS
WAUSAU         CLOUDY    71  61  70 E7        30.03S
6HR MIN TEMP:  71; 6HR MAX TEMP:  76;

MOSINEE        PTSUNNY   72  63  73 E6        30.05S
MARSHFIELD     CLOUDY    73  60  63 E6        30.03S
6HR MIN TEMP:  73; 6HR MAX TEMP:  76;

STEVENS POINT  DRIZZLE   68  63  82 CALM      30.04R
6HR MIN TEMP:  68; 6HR MAX TEMP:  71;

WAUPACA        CLOUDY    74  63  67 CALM      30.03R
6HR MIN TEMP:  72; 6HR MAX TEMP:  78;

WAUTOMA        CLOUDY    71  65  81 N5        30.02S
6HR MIN TEMP:  67; 6HR MAX TEMP:  71;

WISC RAPIDS    CLOUDY    71  62  73 E5        30.04S
6HR MIN TEMP:  71; 6HR MAX TEMP:  75;

CAMP DOUGLAS   CLOUDY    69  66  88 NE2       30.01S
6HR MIN TEMP:  68; 6HR MAX TEMP:  71;

$$

WIZ011>013-019>022-031-037>040-048>050-300100-
NORTHEAST WISCONSIN

CITY           SKY/WX    TMP DP  RH WIND       PRES   REMARKS
ANTIGO         CLOUDY    69  59  72 SE3       30.07R
6HR MIN TEMP:  69; 6HR MAX TEMP:  74;

SHAWANO        CLOUDY    73  58  58 E7        30.04S
6HR MIN TEMP:  73; 6HR MAX TEMP:  79;

OCONTO         CLOUDY    72  58  61 NE7       30.03S
6HR MIN TEMP:  72; 6HR MAX TEMP:  76;

STURGEON BAY   CLOUDY    71  56  58 NE8       30.04S
6HR MIN TEMP:  71; 6HR MAX TEMP:  76;

GREEN BAY      PTSUNNY   72  57  59 E8        30.02S
6HR MIN TEMP:  72; 6HR MAX TEMP:  76;

MANITOWOC      CLOUDY    71  59  65 NE9       30.02R
6HR MIN TEMP:  70; 6HR MAX TEMP:  74;

APPLETON       CLOUDY    73  57  56 NE8       30.01R
CLINTONVILLE   CLOUDY    70  54  56 E6        30.03S
OSHKOSH        CLOUDY    73  60  63 E7        30.01R
6HR MIN TEMP:  70; 6HR MAX TEMP:  76; 6HR PCP: TRACE;

$$

WIZ032>034-041-042-053>061-300100-
SOUTHWEST WISCONSIN

CITY           SKY/WX    TMP DP  RH WIND       PRES   REMARKS
LA CROSSE      LGT RAIN  71  66  84 E5        30.00R
6HR MIN TEMP:  71; 6HR MAX TEMP:  77; 6HR PCP:  0.03;

SPARTA         CLOUDY    71  64  80 E5        30.02S
6HR MIN TEMP:  71; 6HR MAX TEMP:  75;

VIROQUA        CLOUDY    69  65  85 E5        30.02S
6HR MIN TEMP:  68; 6HR MAX TEMP:  74;

BOSCOBEL       CLOUDY    70  67  90 CALM      29.99S
6HR MIN TEMP:  67; 6HR MAX TEMP:  70; 6HR PCP:  0.16;

PRAIRIE DU CHI CLOUDY    71  65  81 NE3       29.98S
6HR MIN TEMP:  65; 6HR MAX TEMP:  71;

PLATTEVILLE    CLOUDY    71  68  92 N12       29.99R
6HR MIN TEMP:  69; 6HR MAX TEMP:  72;

$$

WIZ056-057-062-063-064-067-068-300100-
SOUTH CENTRAL WISCONSIN

CITY           SKY/WX    TMP DP  RH WIND       PRES   REMARKS
REEDSBURG      CLOUDY    69  67  91 NE6       30.00S
6HR MIN TEMP:  67; 6HR MAX TEMP:  70;

BARABOO/DELLS  CLOUDY    68  65  90 CALM      30.00S
LONE ROCK      CLOUDY    71  66  84 NE7       30.00R
6HR MIN TEMP:  66; 6HR MAX TEMP:  73; 6HR PCP:  0.22;

MINERAL POINT  CLOUDY    72  64  78 NE7       29.99R
MADISON        CLOUDY    72  63  73 NE12      29.98S
6HR MIN TEMP:  70; 6HR MAX TEMP:  76;

MIDDLETON      CLOUDY    73  65  76 NE10      29.99S
6HR MIN TEMP:  70; 6HR MAX TEMP:  74; 6HR PCP:  0.01;

WATERTOWN      CLOUDY    71  66  82 NE7       29.99R
6HR MIN TEMP:  70; 6HR MAX TEMP:  75;

MONROE         CLOUDY    70  66  88 NE6       29.98R
JANESVILLE     PTSUNNY   73  66  78 E9        29.95F
$$

WIZ051-052-058>065-066-070>072-300100-
SOUTHEAST WISCONSIN

CITY           SKY/WX    TMP DP  RH WIND       PRES   REMARKS
MILWAUKEE      CLOUDY    72  65  78 N12       29.98R
6HR MIN TEMP:  72; 6HR MAX TEMP:  76;

WAUKESHA       MOSUNNY   70  61  73 NE12      30.00R
MILWAUKEE/TIMM SUNNY     72  61  68 NE13G18   30.00R
RACINE         CLOUDY    69  65  86 N13       29.99R
6HR MIN TEMP:  69; 6HR MAX TEMP:  77;

BURLINGTON     CLOUDY    71  64  79 E9G16     29.97S
6HR MIN TEMP:  71; 6HR MAX TEMP:  75;

KENOSHA        CLOUDY    71  66  84 NE13      29.97S
6HR MIN TEMP:  71; 6HR MAX TEMP:  78;

FOND DU LAC    CLOUDY    74  62  66 NE9       30.01R
6HR MIN TEMP:  71; 6HR MAX TEMP:  78;

SHEBOYGAN      MOSUNNY   69  60  73 NE13      30.01R
6HR MIN TEMP:  69; 6HR MAX TEMP:  75;

WEST BEND      CLOUDY    68  61  77 NE9       30.00S
JUNEAU         PTSUNNY   70  63  79 NE7       30.01R
6HR MIN TEMP:  67; 6HR MAX TEMP:  73; 6HR PCP:  0.06;

$$

LSZ147-162-300100-
LAKE SUPERIOR

STATION/POSITION TIME  TEMP    WIND        PRES    WAVE
                       AIR SEA DIR/SP/G            HT/PER
                 (UTC) (F)     (DEG/KT/KT) (MB)    (FT/S)
W MID LAKE BUOY  2350   64 63  100/  6/  6 1017.7F   0
DEVILS ISLAND    0000   66      90/  5/  6 1018.0F
PORT WING        2340   66      70/  3/  8 1017.9F
SAXON HARBOR     2300   68      50/  7/  9 1017.9
$$

LMZ867-665-643>646-300100-
LAKE MICHIGAN

STATION/POSITION TIME  TEMP    WIND        PRES    WAVE
                       AIR SEA DIR/SP/G            HT/PER
                 (UTC) (F)     (DEG/KT/KT) (MBC1F1C2F2C3F3C4F4C5F5C6F6C7F7C8M1C9M2Ca!


USA.gov is the U.S. government's official web portal to all federal, state and local government web resources and services.